Lid_Strength_Index
7 7 7 7 7 7 7 7 8 7 7 6 6 7 6 5 5 5 5 4 3 3 3 2 2 2 1 1 1 1 1 1 1 1 0 0 0 0 0 0 0 0 0 0
8 7 7 8 7 7 7 7 7 7 7 4 5 5 5 5 5 5 5 4 3 3 3 2 2 2 1 1 1 1 1 1 1 1 1 1 1 1 1 1 0 0 0 0
9 7 7 9 7 7 6 6 6 8 6 5 7 6 6 5 4 5 4 4 3 3 3 2 2 1 2 1 1 1 1 1 1 1 1 1 1 1 1 1 1 1 1 0
9 8 12 7 6 6 7 6 6 6 6 6 6 5 4 4 4 4 4 4 3 2 2 2 1 1 1 1 1 1 1 1 1 1 1 1 1 2 1 1 1 1 1 1
10 10 8 7 6 6 7 7 5 6 6 6 5 5 5 3 3 3 3 3 2 2 2 1 1 1 1 1 1 1 1 1 1 1 2 1 2 2 1 1 1 1 1 1
8 11 12 7 5 4 5 10 4 5 6 6 6 9 7 3 3 3 3 2 2 2 1 1 1 1 1 2 2 2 1 1 1 1 2 2 1 2 2 2 1 1 1 1
9 10 8 5 5 5 11 8 5 5 5 6 7 5 4 3 3 3 2 2 2 1 2 2 1 1 2 2 2 1 1 1 1 1 1 1 1 1 2 2 1 2 1 1
8 10 12 5 6 9 7 5 5 5 4 5 4 4 3 3 3 3 3 2 2 2 2 1 1 1 2 2 1 1 1 2 1 1 1 1 2 1 2 2 2 3 3 3
7 8 6 5 5 4 4 5 4 4 4 4 5 4 4 4 3 3 3 2 2 2 2 1 1 2 3 2 2 2 2 2 2 1 1 1 2 2 2 2 4 5 5 5
8 6 6 5 4 4 4 4 3 3 4 3 4 4 4 4 3 3 3 3 2 2 2 2 1 1 2 2 1 1 2 2 2 2 2 2 2 2 2 4 5 6 5 5
7 6 6 5 4 4 4 3 3 3 3 3 3 4 4 3 3 2 3 2 2 2 2 2 1 1 2 3 1 2 4 4 5 4 5 5 6 7 7 3 4 5 5 5
7 5 5 5 4 3 3 3 3 3 4 3 3 3 3 2 2 2 3 2 2 2 2 2 1 1 1 1 2 3 5 5 4 3 2 3 4 4 7 9 9 10 8 4
5 4 4 4 3 3 3 3 3 3 3 3 3 2 2 2 2 3 2 2 2 2 1 1 1 1 1 0 1 2 3 4 5 5 3 3 3 3 3 5 8 10 11 10
3 3 5 4 4 3 3 3 3 2 2 2 2 2 2 2 2 2 3 2 1 1 1 1 1 1 0 -0 0 1 2 6 4 4 4 4 3 3 3 4 5 6 10 12
3 3 3 3 3 3 2 3 3 3 3 3 2 2 2 3 3 2 2 2 1 1 1 1 1 1 0 -0 0 1 1 1 2 3 3 4 3 4 4 5 5 5 6 9
3 3 3 3 3 3 3 3 3 3 3 2 2 2 2 2 2 2 2 1 2 2 1 1 1 1 -0 -0 -0 0 1 2 2 2 2 3 3 4 4 4 4 5 5 5
4 5 4 4 4 3 3 3 3 3 3 3 3 2 2 2 2 2 2 2 1 1 1 1 1 -0 -0 -0 0 -0 0 0 3 1 3 3 3 3 4 4 4 4 4 3
3 3 3 3 3 3 3 3 3 3 3 2 2 2 2 2 3 3 2 2 1 1 1 0 0 -0 -0 -0 0 -0 -0 -0 -0 1 1 1 1 1 1 1 2 2 1 1
3 3 3 3 3 3 3 3 2 2 2 2 2 2 2 2 3 3 2 2 2 2 1 0 0 0 -1 0 0 -0 -0 -0 -0 1 1 1 1 1 1 1 1 1 1 1
3 3 2 3 2 3 3 2 2 2 2 2 2 2 2 3 2 2 2 2 2 2 0 0 -0 0 -1 -0 0 -0 -0 -0 0 1 0 0 0 1 1 3 1 1 1 0
3 3 3 3 3 2 2 2 2 2 2 2 2 2 2 2 2 2 3 3 1 1 0 1 0 0 -0 -0 0 -0 -0 0 1 0 0 0 1 0 -0 0 1 0 0 0
3 3 3 3 3 3 2 2 2 2 2 2 2 2 3 3 3 2 1 2 2 3 1 1 0 0 0 2 -1 -0 0 0 1 0 1 1 1 1 1 1 1 1 1 0
3 3 3 3 3 3 2 2 2 2 2 2 2 2 2 3 2 3 3 1 1 2 1 0 2 2 2 0 -1 -0 -0 0 1 0 0 0 0 0 1 1 0 0 0 0
2 3 3 2 2 3 3 3 2 2 2 2 1 1 2 3 2 1 1 2 4 2 1 1 2 2 3 0 0 0 0 0 0 0 -0 4 0 0 0 0 0 0 0 1
2 2 2 3 3 4 3 2 2 1 2 2 2 2 1 1 2 1 0 0 3 2 0 3 3 3 0 0 0 0 0 0 0 0 0 0 0 0 0 0 0 0 -0 -0
2 2 2 2 3 2 2 2 3 2 2 2 2 1 1 1 1 1 1 2 0 1 0 0 0 0 0 0 -0 0 0 0 0 0 0 0 -0 0 0 0 -0 -0 -0 -0
2 5 2 2 2 2 2 3 3 2 2 2 2 1 1 2 2 2 2 1 0 0 0 -0 -0 0 0 -0 0 -0 -0 -0 2 -0 -0 -0 -0 -0 -0 -0 -0 -1 -1 -1